Portal de Información Aeronáutica de la República Argentina

Bienvenidos


BAiresFlight

Bienvenidos a BAiresFlight, en este sitio encontrarán toda la información relativa al vuelo. Páginas de interés, archivos enviados por usuarios, documentos, normativas, etc. Desde BAiresFlight apuntamos a que este sitio sea un lugar de consulta, de incorporación de conocimientos, vínculos a sitios de interés relacionados con el vuelo, y por sobre todo, privilegiar el rápido y ágil acceso a la información, todo esto, sin dejar de ser un lugar de encuentro para pilotos, escuelas de vuelo, alumnos, aeroclubes, tripulantes de cabina, instructores, etc. donde buscar e intercambiar experiencias y conocimiento. Paulatinamente, iremos incorporando nuevos documentos, como así también renovando y agregando contenido, y por tal motivo, lo invitamos a regresar. Desde ya, muchas gracias por visitarnos, y compartir este sitio con sus colegas y amigos. Los invitamos a conocer BAiresFlight Portal de información aeronáutica de la República Argentina.

Importante:

Este portal, eventualmente puede emitir comunicados a través de ventanas emergentes, por tal motivo se recomienda permitir las mismas, para esto, deberá ir a la parte de configuración de su explorador y buscar la opción “Permitir ventanas emergentes

BAiresFlight

 

Vuelos de Bautismo en General Rodríguez

12299162_448838941973264_695990146714630102_n

BAiresFlight en Facebook


Aviación Civil Argentina

 

Available data for SABE from the past 2 hours

METAR
SABE 200800Z 33008KT CAVOK 24/21 Q1014
SABE 200700Z 34008KT CAVOK 25/21 Q1014
TAF
TAF SABE 200500Z 2006/2106 02005KT CAVOK TX34/2018Z TN22/2010Z BECMG 2012/2015 07010KT BECMG 2018/2022 36005KT BECMG 2100/2102 09010KT